Home > Weather > Stillwater > Past weeks

Flag for U.S.A. Weather for the Past 2 Weeks in Stillwater, Minnesota, U.S.A.

Now
10 °F

Overcast.


Feels Like: -9 °F
Forecast: 5 / 14 °F
Wind: 21 mph from Northwest

Location: St. Paul Downtown Holman Field

Current Time: Feb 9, 2016 at 4:05:23 AM

Latest Report: Feb 9, 2016 at 2:53 AM


Visibility: 10 mi

Pressure: 30.07 "Hg

Humidity: 64%

Dew point: 0 °F

Location of StillwaterLocation

Historic Weather in Stillwater — Graph

°F

Stillwater Temperature Yesterday

Maximum temperature yesterday: 16 °F (at 12:53 AM)
Minimum temperature yesterday: 12 °F (at 7:53 AM)
Average temperature yesterday: 14 °F

High & Low Weather Summary for the Past Weeks

 TemperatureHumidityPressure
High41 °F (Jan 30, 1:53 PM)96% (Jan 25, 8:53 AM)30.40 "Hg (Jan 25, 8:53 AM)
Low7 °F (Feb 5, 3:53 AM)50% (Feb 3, 2:53 PM)29.52 "Hg (Jan 30, 3:53 PM)
Average26 °F79%29.91 "Hg
* Reported Jan 25 1:53 AM — Feb 9 1:53 AM, Stillwater, Weather by CustomWeather, © 2016

Note: Actual official high and low records may vary slightly from our data, if they occured in-between our weather recording intervals... More about our weather records

Advertising

Stillwater Weather History for the Previous 24 Hours

 ConditionsComfort  
Time TempWeatherWind HumidityBarometerVisibility
1:53 AM
Tue, Feb 9
11 °FOvercast.18 mph67%30.05 "Hg10 mi
12:53 AM12 °FOvercast.16 mph64%30.05 "Hg10 mi
11:53 PM
Mon, Feb 8
13 °FOvercast.20 mph67%30.04 "Hg10 mi
10:53 PM13 °FOvercast.17 mph67%30.03 "Hg10 mi
9:53 PM13 °FLight snow. Mostly cloudy.18 mph70%30.03 "Hg8 mi
8:53 PM14 °FLight snow. Overcast.17 mph71%30.02 "Hg7 mi
7:53 PM15 °FLight snow. Mostly cloudy.20 mph67%30.02 "Hg8 mi
6:53 PM15 °FLight snow. Mostly cloudy.20 mph74%30.02 "Hg7 mi
5:53 PM16 °FLight snow. Overcast.20 mph67%30.01 "Hg8 mi
4:53 PM16 °FLight snow. Mostly cloudy.16 mph74%30.01 "Hg3 mi
3:53 PM16 °FLight snow. Mostly cloudy.20 mph67%30.01 "Hg4 mi
2:53 PM16 °FOvercast.18 mph62%29.99 "Hg10 mi
1:53 PM16 °FOvercast.18 mph65%29.97 "Hg7 mi
12:53 PM15 °FOvercast.17 mph64%29.98 "Hg10 mi
11:53 AM14 °FMostly cloudy.22 mph61%30.00 "Hg10 mi
10:53 AM13 °FOvercast.21 mph64%30.00 "Hg10 mi
9:53 AM12 °FLight snow. More clouds than sun.18 mph67%29.98 "Hg10 mi
8:53 AM12 °FLight snow. Overcast.21 mph70%29.96 "Hg3 mi
7:53 AM12 °FOvercast.21 mph67%29.93 "Hg10 mi
6:53 AM13 °FOvercast.17 mph67%29.91 "Hg10 mi
5:53 AM14 °FOvercast.23 mph67%29.88 "Hg10 mi
4:53 AM14 °FLight snow. Overcast.24 mph71%29.85 "Hg8 mi
Weather by CustomWeather, © 2016

See weather overviewHow to use our weather pages